Regional Weather Roundup
Issued by NWS

Home | Current Version | Previous Version | Graphics & Text | Print | Product List | Glossary On
Versions: 1 2 3 4 5 6 7 8 9 10 11 12 13 14 15 16 17 18 19 20 21 22 23 24 25 26 27 28 29 30 31 32 33 34 35 36 37 38 39 40 41 42 43 44 45 46 47 48 49 50
000
ASUS43 KTOP 190559
RWRKS

WEATHER ROUNDUP FOR KANSAS
NATIONAL WEATHER SERVICE GOODLAND KS
1200 AM CST FRI DEC 19 2014

NOTE:  "FAIR" INDICATES FEW OR NO CLOUDS BELOW 12,000 FEET WITH NO
SIGNIFICANT WEATHER AND/OR OBSTRUCTIONS TO VISIBILITY.

KSZ001>006-013>018-027>032-041>047-190700-
NORTHWEST KANSAS

CITY           SKY/WX    TMP DP  RH WIND       PRES   REMARKS
GOODLAND       CLEAR     23  21  92 W7        30.12R
6HR MIN TEMP:  23; 6HR MAX TEMP:  31;

HAYS           CLOUDY    32  25  74 S7        30.20S
HILL CITY      CLOUDY    33  29  85 SW5       30.19R
6HR MIN TEMP:  32; 6HR MAX TEMP:  34;

RUSSELL        CLOUDY    31  30  96 S8        30.21R
6HR MIN TEMP:  30; 6HR MAX TEMP:  31;

$$

KSZ061>065-074>080-084>089-190700-
SOUTHWEST KANSAS

CITY           SKY/WX    TMP DP  RH WIND       PRES   REMARKS
DODGE CITY     CLOUDY    33  30  88 SW3       30.19R FOG
6HR MIN TEMP:  32; 6HR MAX TEMP:  34;

ELKHART          N/A     30  27  89 SW2         N/A
GARDEN CITY    CLOUDY    33  31  92 SW5       30.17R FOG
6HR MIN TEMP:  32; 6HR MAX TEMP:  34;

GREAT BEND     CLOUDY    30  25  80 CALM      30.23S
LIBERAL        CLOUDY    36  30  80 S3        30.19R
$$

KSZ066>073-081>083-090>101-190700-
SOUTHEAST KANSAS

CITY           SKY/WX    TMP DP  RH WIND       PRES   REMARKS
CHANUTE        CLOUDY    34  33  96 N3        30.26R
6HR MIN TEMP:  34; 6HR MAX TEMP:  34;

COFFEYVILLE    CLOUDY    36  34  92 N7        30.25S
6HR MIN TEMP:  36; 6HR MAX TEMP:  38;

HUTCHINSON     CLOUDY    31  28  89 E3        30.24S FOG
6HR MIN TEMP:  30; 6HR MAX TEMP:  31;

MEDICINE LODGE   N/A     34  31  88 CALM      30.22S
NEWTON         CLOUDY    28  25  86 CALM      30.25F VSB 1
PARSONS        CLOUDY    36  34  92 N5        30.26S
6HR MIN TEMP:  35; 6HR MAX TEMP:  36;

WICHITA INTL   CLOUDY    31  28  89 CALM      30.25R FOG
6HR MIN TEMP:  31; 6HR MAX TEMP:  34;

WICHITA JABRA  CLOUDY    29  28  96 CALM      30.24S
6HR MIN TEMP:  29; 6HR MAX TEMP:  32;

WICHITA MCCONL CLOUDY    30  28  94 NE3       30.25S
WINFIELD       CLOUDY    33  32  96 N6        30.26S
6HR MIN TEMP:  33; 6HR MAX TEMP:  35;

$$

KSZ007>012-019>026-033>040-048>060-102>105-190700-
NORTHEAST KANSAS

CITY           SKY/WX    TMP DP  RH WIND       PRES   REMARKS
CONCORDIA      CLOUDY    28  27  96 SW5       30.24S
6HR MIN TEMP:  28; 6HR MAX TEMP:  29;

EMPORIA        CLOUDY    30  29  96 CALM      30.25S
6HR MIN TEMP:  30; 6HR MAX TEMP:  32;

LAWRENCE       CLOUDY    32  29  88 N3        30.28R
6HR MIN TEMP:  32; 6HR MAX TEMP:  32;

MANHATTAN      CLOUDY    31  28  89 CALM      30.27S
6HR MIN TEMP:  31; 6HR MAX TEMP:  33;

OLATHE IND     CLOUDY    31  29  92 SE3       30.26R
6HR MIN TEMP:  31; 6HR MAX TEMP:  32;

OLATHE EXE     CLOUDY    32  30  92 NE3       30.24F FOG
6HR MIN TEMP:  32; 6HR MAX TEMP:  33;

SALINA         CLOUDY    30  27  88 SE3       30.26S
6HR MIN TEMP:  30; 6HR MAX TEMP:  32;

TOPEKA BILLARD CLOUDY    33  29  85 SE5       30.28R
6HR MIN TEMP:  33; 6HR MAX TEMP:  34;

TOPEKA FORBES  CLOUDY    32  29  88 CALM      30.26S
6HR MIN TEMP:  32; 6HR MAX TEMP:  33;

$$


USA.gov is the U.S. government's official web portal to all federal, state and local government web resources and services.